Time,TemperatureF,DewpointF,PressureIn,WindDirection,WindDirectionDegrees,WindSpeedMPH,WindSpeedGustMPH,Humidity,HourlyPrecipIn,Conditions,Clouds,dailyrainin,SoftwareType,DateUTC
2013-05-05 00:00:00,51.6,51.6,0.00,North,0,0.0,0.0,100,0.00,,,0.00,VWS V12.08,2013-05-05 04:00:00,
2013-05-05 00:05:00,51.4,51.4,0.00,North,0,0.0,0.0,100,0.00,,,0.00,VWS V12.08,2013-05-05 04:05:00,
2013-05-05 00:10:00,51.1,51.1,0.00,North,0,0.0,0.0,100,0.00,,,0.00,VWS V12.08,2013-05-05 04:10:00,
2013-05-05 00:15:00,51.1,51.1,0.00,North,0,0.0,0.0,100,0.00,,,0.00,VWS V12.08,2013-05-05 04:15:00,
2013-05-05 00:20:00,50.9,50.9,0.00,North,0,0.0,0.0,100,0.00,,,0.00,VWS V12.08,2013-05-05 04:20:00,
2013-05-05 00:25:00,50.9,50.9,0.00,North,0,0.0,0.0,100,0.00,,,0.00,VWS V12.08,2013-05-05 04:25:00,
2013-05-05 00:29:00,49.8,49.8,0.00,North,0,0.0,0.0,100,0.00,,,0.00,VWS V12.08,2013-05-05 04:29:00,
2013-05-05 00:30:00,50.7,50.7,0.00,North,0,0.0,0.0,100,0.00,,,0.00,VWS V12.08,2013-05-05 04:30:00,
2013-05-05 00:31:00,49.6,49.6,0.00,North,0,0.0,0.0,100,0.00,,,0.00,VWS V12.08,2013-05-05 04:31:00,
2013-05-05 00:32:00,49.6,49.6,0.00,North,0,0.0,0.0,100,0.00,,,0.00,VWS V12.08,2013-05-05 04:32:00,
2013-05-05 00:33:00,49.6,49.6,0.00,North,0,0.0,0.0,100,0.00,,,0.00,VWS V12.08,2013-05-05 04:33:00,
2013-05-05 00:34:00,49.5,49.5,0.00,North,0,0.0,0.0,100,0.00,,,0.00,VWS V12.08,2013-05-05 04:34:00,
2013-05-05 00:35:00,50.7,50.7,0.00,North,0,0.0,0.0,100,0.00,,,0.00,VWS V12.08,2013-05-05 04:35:00,
2013-05-05 00:40:00,50.5,50.5,0.00,North,0,0.0,0.0,100,0.00,,,0.00,VWS V12.08,2013-05-05 04:40:00,
2013-05-05 00:45:00,50.4,50.4,0.00,North,0,0.0,0.0,100,0.00,,,0.00,VWS V12.08,2013-05-05 04:45:00,
2013-05-05 00:50:00,50.4,50.4,0.00,North,0,0.0,0.0,100,0.00,,,0.00,VWS V12.08,2013-05-05 04:50:00,
2013-05-05 00:55:00,50.2,50.2,0.00,North,0,0.0,0.0,100,0.00,,,0.00,VWS V12.08,2013-05-05 04:55:00,
2013-05-05 01:00:00,50.2,50.2,0.00,North,0,0.0,0.0,100,0.00,,,0.00,VWS V12.08,2013-05-05 05:00:00,
2013-05-05 01:05:00,50.2,50.2,0.00,North,0,0.0,0.0,100,0.00,,,0.00,VWS V12.08,2013-05-05 05:05:00,
2013-05-05 01:10:00,50.0,50.0,0.00,North,0,0.0,0.0,100,0.00,,,0.00,VWS V12.08,2013-05-05 05:10:00,
2013-05-05 01:15:00,50.0,50.0,0.00,North,0,0.0,0.0,100,0.00,,,0.00,VWS V12.08,2013-05-05 05:15:00,
2013-05-05 01:20:00,50.0,50.0,0.00,North,0,0.0,0.0,100,0.00,,,0.00,VWS V12.08,2013-05-05 05:20:00,
2013-05-05 01:25:00,50.0,50.0,0.00,North,0,0.0,0.0,100,0.00,,,0.00,VWS V12.08,2013-05-05 05:25:00,
2013-05-05 01:29:00,48.9,48.9,0.00,North,0,0.0,0.0,100,0.00,,,0.00,VWS V12.08,2013-05-05 05:29:00,
2013-05-05 01:30:00,49.8,49.8,0.00,North,0,0.0,0.0,100,0.00,,,0.00,VWS V12.08,2013-05-05 05:30:00,
2013-05-05 01:31:00,48.9,48.9,0.00,North,0,0.0,0.0,100,0.00,,,0.00,VWS V12.08,2013-05-05 05:31:00,
2013-05-05 01:32:00,48.9,48.9,0.00,North,0,0.0,0.0,100,0.00,,,0.00,VWS V12.08,2013-05-05 05:32:00,
2013-05-05 01:33:00,48.9,48.9,0.00,North,0,0.0,0.0,100,0.00,,,0.00,VWS V12.08,2013-05-05 05:33:00,
2013-05-05 01:34:00,48.9,48.9,0.00,North,0,0.0,0.0,100,0.00,,,0.00,VWS V12.08,2013-05-05 05:34:00,
2013-05-05 01:35:00,49.6,49.6,0.00,North,0,0.0,0.0,100,0.00,,,0.00,VWS V12.08,2013-05-05 05:35:00,
2013-05-05 01:40:00,49.5,49.5,0.00,North,0,0.0,0.0,100,0.00,,,0.00,VWS V12.08,2013-05-05 05:40:00,
2013-05-05 01:45:00,49.5,49.5,0.00,North,0,0.0,0.0,100,0.00,,,0.00,VWS V12.08,2013-05-05 05:45:00,
2013-05-05 01:50:00,49.3,49.3,0.00,North,0,0.0,0.0,100,0.00,,,0.00,VWS V12.08,2013-05-05 05:50:00,
2013-05-05 01:55:00,49.3,49.3,0.00,North,0,0.0,0.0,100,0.00,,,0.00,VWS V12.08,2013-05-05 05:55:00,
2013-05-05 02:00:00,49.3,49.3,0.00,North,0,0.0,0.0,100,0.00,,,0.00,VWS V12.08,2013-05-05 06:00:00,
2013-05-05 02:05:00,49.3,49.3,0.00,North,0,0.0,0.0,100,0.00,,,0.00,VWS V12.08,2013-05-05 06:05:00,
2013-05-05 02:10:00,49.3,49.3,0.00,North,0,0.0,0.0,100,0.00,,,0.00,VWS V12.08,2013-05-05 06:10:00,
2013-05-05 02:15:00,49.3,49.3,0.00,North,0,0.0,0.0,100,0.00,,,0.00,VWS V12.08,2013-05-05 06:15:00,
2013-05-05 02:20:00,49.1,49.1,0.00,North,0,0.0,0.0,100,0.00,,,0.00,VWS V12.08,2013-05-05 06:20:00,
2013-05-05 02:25:00,49.1,49.1,0.00,North,0,0.0,0.0,100,0.00,,,0.00,VWS V12.08,2013-05-05 06:25:00,
2013-05-05 02:29:00,48.6,48.6,0.00,North,0,0.0,0.0,100,0.00,,,0.00,VWS V12.08,2013-05-05 06:29:00,
2013-05-05 02:30:00,48.9,48.9,0.00,North,0,0.0,0.0,100,0.00,,,0.00,VWS V12.08,2013-05-05 06:30:00,
2013-05-05 02:31:00,48.7,48.7,0.00,North,0,0.0,0.0,100,0.00,,,0.00,VWS V12.08,2013-05-05 06:31:00,
2013-05-05 02:32:00,48.7,48.7,0.00,North,0,0.0,0.0,100,0.00,,,0.00,VWS V12.08,2013-05-05 06:32:00,
2013-05-05 02:33:00,48.7,48.7,0.00,North,0,0.0,0.0,100,0.00,,,0.00,VWS V12.08,2013-05-05 06:33:00,
2013-05-05 02:34:00,48.6,48.6,0.00,North,0,0.0,0.0,100,0.00,,,0.00,VWS V12.08,2013-05-05 06:34:00,
2013-05-05 02:35:00,48.9,48.9,0.00,North,0,0.0,0.0,100,0.00,,,0.00,VWS V12.08,2013-05-05 06:35:00,
2013-05-05 02:40:00,48.9,48.9,0.00,North,0,0.0,0.0,100,0.00,,,0.00,VWS V12.08,2013-05-05 06:40:00,
2013-05-05 02:45:00,48.9,48.9,0.00,North,0,0.0,0.0,100,0.00,,,0.00,VWS V12.08,2013-05-05 06:45:00,
2013-05-05 02:50:00,48.7,48.7,0.00,North,0,0.0,0.0,100,0.00,,,0.00,VWS V12.08,2013-05-05 06:50:00,
2013-05-05 02:55:00,48.7,48.7,0.00,North,0,0.0,0.0,100,0.00,,,0.00,VWS V12.08,2013-05-05 06:55:00,
2013-05-05 03:00:00,48.9,48.9,0.00,North,0,0.0,0.0,100,0.00,,,0.00,VWS V12.08,2013-05-05 07:00:00,
2013-05-05 03:05:00,48.9,48.9,0.00,North,0,0.0,0.0,100,0.00,,,0.00,VWS V12.08,2013-05-05 07:05:00,
2013-05-05 03:10:00,48.7,48.7,0.00,North,0,0.0,0.0,100,0.00,,,0.00,VWS V12.08,2013-05-05 07:10:00,
2013-05-05 03:15:00,48.7,48.7,0.00,North,0,0.0,0.0,100,0.00,,,0.00,VWS V12.08,2013-05-05 07:15:00,
2013-05-05 03:20:00,48.6,48.6,0.00,North,0,0.0,0.0,100,0.00,,,0.00,VWS V12.08,2013-05-05 07:20:00,
2013-05-05 03:25:00,48.6,48.6,0.00,North,0,0.0,0.0,100,0.00,,,0.00,VWS V12.08,2013-05-05 07:25:00,
2013-05-05 03:29:00,48.2,48.2,0.00,North,0,0.0,0.0,100,0.00,,,0.00,VWS V12.08,2013-05-05 07:29:00,
2013-05-05 03:30:00,48.2,48.2,0.00,North,0,0.0,0.0,100,0.00,,,0.00,VWS V12.08,2013-05-05 07:30:00,
2013-05-05 03:31:00,48.2,48.2,0.00,North,0,0.0,0.0,100,0.00,,,0.00,VWS V12.08,2013-05-05 07:31:00,
2013-05-05 03:32:00,48.2,48.2,0.00,North,0,0.0,0.0,100,0.00,,,0.00,VWS V12.08,2013-05-05 07:32:00,
2013-05-05 03:33:00,48.7,48.7,0.00,North,0,0.0,0.0,100,0.00,,,0.00,VWS V12.08,2013-05-05 07:33:00,
2013-05-05 03:34:00,48.2,48.2,0.00,North,0,0.0,0.0,100,0.00,,,0.00,VWS V12.08,2013-05-05 07:34:00,
2013-05-05 03:38:00,48.4,48.4,0.00,North,0,0.0,0.0,100,0.00,,,0.00,VWS V12.08,2013-05-05 07:38:00,
2013-05-05 03:43:00,48.4,48.4,0.00,North,0,0.0,0.0,100,0.00,,,0.00,VWS V12.08,2013-05-05 07:43:00,
2013-05-05 03:48:00,48.2,48.2,0.00,North,0,0.0,0.0,100,0.00,,,0.00,VWS V12.08,2013-05-05 07:48:00,
2013-05-05 03:53:00,48.2,48.2,0.00,North,0,0.0,0.0,100,0.00,,,0.00,VWS V12.08,2013-05-05 07:53:00,
2013-05-05 03:58:00,48.2,48.2,0.00,North,0,0.0,0.0,100,0.00,,,0.00,VWS V12.08,2013-05-05 07:58:00,
2013-05-05 04:03:00,48.0,48.0,0.00,North,0,0.0,0.0,100,0.00,,,0.00,VWS V12.08,2013-05-05 08:03:00,
2013-05-05 04:08:00,48.2,48.2,0.00,North,0,0.0,0.0,100,0.00,,,0.00,VWS V12.08,2013-05-05 08:08:00,
2013-05-05 04:13:00,48.2,48.2,0.00,North,0,0.0,0.0,100,0.00,,,0.00,VWS V12.08,2013-05-05 08:13:00,
2013-05-05 04:18:00,48.0,48.0,0.00,North,0,0.0,0.0,100,0.00,,,0.00,VWS V12.08,2013-05-05 08:18:00,
2013-05-05 04:23:00,48.2,48.2,0.00,North,0,0.0,0.0,100,0.00,,,0.00,VWS V12.08,2013-05-05 08:23:00,
2013-05-05 04:28:00,48.2,48.2,0.00,North,0,0.0,0.0,100,0.00,,,0.00,VWS V12.08,2013-05-05 08:28:00,
2013-05-05 04:29:00,48.6,48.6,0.00,North,0,0.0,0.0,100,0.00,,,0.00,VWS V12.08,2013-05-05 08:29:00,
2013-05-05 04:30:00,48.6,48.6,0.00,North,0,0.0,0.0,100,0.00,,,0.00,VWS V12.08,2013-05-05 08:30:00,
2013-05-05 04:31:00,48.6,48.6,0.00,North,0,0.0,0.0,100,0.00,,,0.00,VWS V12.08,2013-05-05 08:31:00,
2013-05-05 04:32:00,48.6,48.6,0.00,North,0,0.0,0.0,100,0.00,,,0.00,VWS V12.08,2013-05-05 08:32:00,
2013-05-05 04:33:00,48.6,48.6,0.00,North,0,0.0,0.0,100,0.00,,,0.00,VWS V12.08,2013-05-05 08:33:00,
2013-05-05 04:34:00,48.2,48.2,0.00,North,0,0.0,0.0,100,0.00,,,0.00,VWS V12.08,2013-05-05 08:34:00,
2013-05-05 04:35:00,48.6,48.6,0.00,North,0,0.0,0.0,100,0.00,,,0.00,VWS V12.08,2013-05-05 08:35:00,
2013-05-05 04:36:00,48.6,48.6,0.00,North,0,0.0,0.0,100,0.00,,,0.00,VWS V12.08,2013-05-05 08:36:00,
2013-05-05 04:39:00,48.0,48.0,0.00,North,0,0.0,0.0,100,0.00,,,0.00,VWS V12.08,2013-05-05 08:39:00,
2013-05-05 04:44:00,48.0,48.0,0.00,North,0,0.0,0.0,100,0.00,,,0.00,VWS V12.08,2013-05-05 08:44:00,
2013-05-05 04:49:00,48.2,48.2,0.00,North,0,0.0,0.0,100,0.00,,,0.00,VWS V12.08,2013-05-05 08:49:00,
2013-05-05 04:54:00,48.2,48.2,0.00,North,0,0.0,0.0,100,0.00,,,0.00,VWS V12.08,2013-05-05 08:54:00,
2013-05-05 04:59:00,48.2,48.2,0.00,North,0,0.0,0.0,100,0.00,,,0.00,VWS V12.08,2013-05-05 08:59:00,
2013-05-05 05:04:00,48.2,48.2,0.00,North,0,0.0,0.0,100,0.00,,,0.00,VWS V12.08,2013-05-05 09:04:00,
2013-05-05 05:09:00,48.2,48.2,0.00,North,0,0.0,0.0,100,0.00,,,0.00,VWS V12.08,2013-05-05 09:09:00,
2013-05-05 05:14:00,48.2,48.2,0.00,North,0,0.0,0.0,100,0.00,,,0.00,VWS V12.08,2013-05-05 09:14:00,
2013-05-05 05:19:00,48.4,48.4,0.00,North,0,0.0,0.0,100,0.00,,,0.00,VWS V12.08,2013-05-05 09:19:00,
2013-05-05 05:24:00,48.6,48.6,0.00,North,0,0.0,0.0,100,0.00,,,0.00,VWS V12.08,2013-05-05 09:24:00,
2013-05-05 05:29:00,48.6,48.6,0.00,North,0,0.0,0.0,100,0.00,,,0.00,VWS V12.08,2013-05-05 09:29:00,
2013-05-05 05:30:00,48.9,48.9,0.00,North,0,0.0,0.0,100,0.00,,,0.00,VWS V12.08,2013-05-05 09:30:00,
2013-05-05 05:31:00,48.9,48.9,0.00,North,0,0.0,0.0,100,0.00,,,0.00,VWS V12.08,2013-05-05 09:31:00,
2013-05-05 05:32:00,48.9,48.9,0.00,North,0,0.0,0.0,100,0.00,,,0.00,VWS V12.08,2013-05-05 09:32:00,
2013-05-05 05:33:00,48.9,48.9,0.00,North,0,0.0,0.0,100,0.00,,,0.00,VWS V12.08,2013-05-05 09:33:00,
2013-05-05 05:34:00,48.6,48.6,0.00,North,0,0.0,0.0,100,0.00,,,0.00,VWS V12.08,2013-05-05 09:34:00,
2013-05-05 05:39:00,48.6,48.6,0.00,North,0,0.0,0.0,100,0.00,,,0.00,VWS V12.08,2013-05-05 09:39:00,
2013-05-05 05:44:00,48.4,48.4,0.00,North,0,0.0,0.0,100,0.00,,,0.00,VWS V12.08,2013-05-05 09:44:00,
2013-05-05 05:49:00,48.6,48.6,0.00,North,0,0.0,0.0,100,0.00,,,0.00,VWS V12.08,2013-05-05 09:49:00,
2013-05-05 05:54:00,48.4,48.4,0.00,North,0,0.0,0.0,100,0.00,,,0.00,VWS V12.08,2013-05-05 09:54:00,
2013-05-05 05:59:00,48.6,48.6,0.00,North,0,0.0,0.0,100,0.00,,,0.00,VWS V12.08,2013-05-05 09:59:00,
2013-05-05 06:04:00,48.6,48.6,0.00,North,0,0.0,0.0,100,0.00,,,0.00,VWS V12.08,2013-05-05 10:04:00,
2013-05-05 06:09:00,48.6,48.6,0.00,North,0,0.0,0.0,100,0.00,,,0.00,VWS V12.08,2013-05-05 10:09:00,
2013-05-05 06:14:00,48.6,48.6,0.00,North,0,0.0,0.0,100,0.00,,,0.00,VWS V12.08,2013-05-05 10:14:00,
2013-05-05 06:19:00,48.7,48.7,0.00,North,0,0.0,0.0,100,0.00,,,0.00,VWS V12.08,2013-05-05 10:19:00,
2013-05-05 06:24:00,48.7,48.7,0.00,North,0,0.0,0.0,100,0.00,,,0.00,VWS V12.08,2013-05-05 10:24:00,
2013-05-05 06:29:00,48.7,48.7,0.00,North,0,0.0,0.0,100,0.00,,,0.00,VWS V12.08,2013-05-05 10:29:00,
2013-05-05 06:30:00,49.1,49.1,0.00,North,0,0.0,0.0,100,0.00,,,0.00,VWS V12.08,2013-05-05 10:30:00,
2013-05-05 06:31:00,49.1,49.1,0.00,North,0,0.0,0.0,100,0.00,,,0.00,VWS V12.08,2013-05-05 10:31:00,
2013-05-05 06:34:00,48.9,48.9,0.00,North,0,0.0,0.0,100,0.00,,,0.00,VWS V12.08,2013-05-05 10:34:00,
2013-05-05 06:39:00,48.9,48.9,0.00,North,0,0.0,0.0,100,0.00,,,0.00,VWS V12.08,2013-05-05 10:39:00,
2013-05-05 06:44:00,49.1,49.1,0.00,North,0,0.0,0.0,100,0.00,,,0.00,VWS V12.08,2013-05-05 10:44:00,
2013-05-05 06:49:00,48.9,48.9,0.00,North,0,0.0,0.0,100,0.00,,,0.00,VWS V12.08,2013-05-05 10:49:00,
2013-05-05 06:54:00,48.9,48.9,0.00,North,0,0.0,0.0,100,0.00,,,0.00,VWS V12.08,2013-05-05 10:54:00,
2013-05-05 06:59:00,48.9,48.9,0.00,North,0,0.0,0.0,100,0.00,,,0.00,VWS V12.08,2013-05-05 10:59:00,
2013-05-05 07:04:00,48.9,48.9,0.00,North,0,0.0,0.0,100,0.00,,,0.00,VWS V12.08,2013-05-05 11:04:00,
2013-05-05 07:09:00,48.9,48.9,0.00,North,0,0.0,0.0,100,0.00,,,0.00,VWS V12.08,2013-05-05 11:09:00,
2013-05-05 07:14:00,48.9,48.9,0.00,North,0,0.0,0.0,100,0.00,,,0.00,VWS V12.08,2013-05-05 11:14:00,
2013-05-05 07:19:00,48.9,48.9,0.00,North,0,0.0,0.0,100,0.00,,,0.00,VWS V12.08,2013-05-05 11:19:00,
2013-05-05 07:24:00,49.1,49.1,0.00,North,0,0.0,0.0,100,0.00,,,0.00,VWS V12.08,2013-05-05 11:24:00,
2013-05-05 07:29:00,49.1,49.1,0.00,North,0,0.0,0.0,100,0.00,,,0.00,VWS V12.08,2013-05-05 11:29:00,
2013-05-05 07:30:00,49.6,49.6,0.00,North,0,0.0,0.0,100,0.00,,,0.00,VWS V12.08,2013-05-05 11:30:00,
2013-05-05 07:31:00,49.6,49.6,0.00,North,0,0.0,0.0,100,0.00,,,0.00,VWS V12.08,2013-05-05 11:31:00,
2013-05-05 07:32:00,49.6,49.6,0.00,North,0,0.0,0.0,100,0.00,,,0.00,VWS V12.08,2013-05-05 11:32:00,
2013-05-05 07:33:00,49.6,49.6,0.00,North,0,0.0,0.0,100,0.00,,,0.00,VWS V12.08,2013-05-05 11:33:00,
2013-05-05 07:34:00,49.1,49.1,0.00,North,0,0.0,0.0,100,0.00,,,0.00,VWS V12.08,2013-05-05 11:34:00,
2013-05-05 07:35:00,49.6,49.6,0.00,North,0,0.0,0.0,100,0.00,,,0.00,VWS V12.08,2013-05-05 11:35:00,
2013-05-05 07:36:00,49.6,49.6,0.00,North,0,0.0,0.0,100,0.00,,,0.00,VWS V12.08,2013-05-05 11:36:00,
2013-05-05 07:39:00,49.1,49.1,0.00,North,0,0.0,0.0,100,0.00,,,0.00,VWS V12.08,2013-05-05 11:39:00,
2013-05-05 07:44:00,49.3,49.3,0.00,North,0,0.0,0.0,100,0.00,,,0.00,VWS V12.08,2013-05-05 11:44:00,
2013-05-05 07:49:00,49.3,49.3,0.00,North,0,0.0,0.0,100,0.00,,,0.00,VWS V12.08,2013-05-05 11:49:00,
2013-05-05 07:54:00,49.1,49.1,0.00,North,0,0.0,0.0,100,0.00,,,0.00,VWS V12.08,2013-05-05 11:54:00,
2013-05-05 07:59:00,49.1,49.1,0.00,North,0,0.0,0.0,100,0.00,,,0.00,VWS V12.08,2013-05-05 11:59:00,
2013-05-05 08:04:00,49.3,49.3,0.00,North,0,0.0,0.0,100,0.00,,,0.00,VWS V12.08,2013-05-05 12:04:00,
2013-05-05 08:09:00,49.3,49.3,0.00,North,0,0.0,0.0,100,0.00,,,0.00,VWS V12.08,2013-05-05 12:09:00,
2013-05-05 08:14:00,49.3,49.3,0.00,North,0,0.0,0.0,100,0.00,,,0.00,VWS V12.08,2013-05-05 12:14:00,
2013-05-05 08:19:00,49.3,49.3,0.00,North,0,0.0,0.0,100,0.00,,,0.00,VWS V12.08,2013-05-05 12:19:00,
2013-05-05 08:24:00,49.3,49.3,0.00,North,0,0.0,0.0,100,0.00,,,0.00,VWS V12.08,2013-05-05 12:24:00,
2013-05-05 08:29:00,49.5,49.5,0.00,North,0,0.0,0.0,100,0.00,,,0.00,VWS V12.08,2013-05-05 12:29:00,
2013-05-05 08:30:00,50.2,50.2,0.00,North,0,0.0,0.0,100,0.00,,,0.00,VWS V12.08,2013-05-05 12:30:00,
2013-05-05 08:31:00,50.4,50.4,0.00,North,0,0.0,0.0,100,0.00,,,0.00,VWS V12.08,2013-05-05 12:31:00,
2013-05-05 08:32:00,50.4,50.4,0.00,North,0,0.0,0.0,100,0.00,,,0.00,VWS V12.08,2013-05-05 12:32:00,
2013-05-05 08:33:00,50.4,50.4,0.00,North,0,0.0,0.0,100,0.00,,,0.00,VWS V12.08,2013-05-05 12:33:00,
2013-05-05 08:34:00,49.6,49.6,0.00,North,0,0.0,0.0,100,0.00,,,0.00,VWS V12.08,2013-05-05 12:34:00,
2013-05-05 08:35:00,50.4,50.4,0.00,North,0,0.0,0.0,100,0.00,,,0.00,VWS V12.08,2013-05-05 12:35:00,
2013-05-05 08:39:00,49.8,49.8,0.00,North,0,0.0,0.0,100,0.00,,,0.00,VWS V12.08,2013-05-05 12:39:00,
2013-05-05 08:44:00,49.8,49.8,0.00,North,0,0.0,0.0,100,0.00,,,0.00,VWS V12.08,2013-05-05 12:44:00,
2013-05-05 08:49:00,50.0,50.0,0.00,North,0,0.0,0.0,100,0.00,,,0.00,VWS V12.08,2013-05-05 12:49:00,
2013-05-05 08:54:00,50.0,50.0,0.00,North,0,0.0,0.0,100,0.00,,,0.00,VWS V12.08,2013-05-05 12:54:00,
2013-05-05 08:59:00,50.2,50.2,0.00,North,0,0.0,0.0,100,0.00,,,0.00,VWS V12.08,2013-05-05 12:59:00,
2013-05-05 09:04:00,50.2,50.2,0.00,North,0,0.0,0.0,100,0.00,,,0.00,VWS V12.08,2013-05-05 13:04:00,
2013-05-05 09:09:00,50.2,50.2,0.00,North,0,0.0,0.0,100,0.00,,,0.00,VWS V12.08,2013-05-05 13:09:00,
2013-05-05 09:14:00,50.4,50.4,0.00,North,0,0.0,0.0,100,0.00,,,0.00,VWS V12.08,2013-05-05 13:14:00,
2013-05-05 09:19:00,50.4,50.4,0.00,North,0,0.0,0.0,100,0.00,,,0.00,VWS V12.08,2013-05-05 13:19:00,
2013-05-05 09:24:00,50.2,50.2,0.00,North,0,0.0,0.0,100,0.00,,,0.00,VWS V12.08,2013-05-05 13:24:00,
2013-05-05 09:29:00,50.2,50.2,0.00,North,0,0.0,0.0,100,0.00,,,0.00,VWS V12.08,2013-05-05 13:29:00,
2013-05-05 09:30:00,52.2,52.2,0.00,North,0,0.0,0.0,100,0.00,,,0.00,VWS V12.08,2013-05-05 13:30:00,
2013-05-05 09:31:00,52.2,52.2,0.00,North,0,0.0,0.0,100,0.00,,,0.00,VWS V12.08,2013-05-05 13:31:00,
2013-05-05 09:32:00,52.0,52.0,0.00,North,0,0.0,0.0,100,0.00,,,0.00,VWS V12.08,2013-05-05 13:32:00,
2013-05-05 09:33:00,52.0,52.0,0.00,North,0,0.0,0.0,100,0.00,,,0.00,VWS V12.08,2013-05-05 13:33:00,
2013-05-05 09:34:00,50.4,50.4,0.00,North,0,0.0,0.0,100,0.00,,,0.00,VWS V12.08,2013-05-05 13:34:00,
2013-05-05 09:35:00,51.8,51.8,0.00,North,0,0.0,0.0,100,0.00,,,0.00,VWS V12.08,2013-05-05 13:35:00,
2013-05-05 09:39:00,50.4,50.4,0.00,North,0,0.0,0.0,100,0.00,,,0.00,VWS V12.08,2013-05-05 13:39:00,
2013-05-05 09:44:00,50.5,50.5,0.00,North,0,0.0,0.0,100,0.00,,,0.00,VWS V12.08,2013-05-05 13:44:00,
2013-05-05 09:49:00,50.5,50.5,0.00,North,0,0.0,0.0,100,0.00,,,0.00,VWS V12.08,2013-05-05 13:49:00,
2013-05-05 09:54:00,50.7,50.7,0.00,North,0,0.0,0.0,100,0.00,,,0.00,VWS V12.08,2013-05-05 13:54:00,
2013-05-05 09:59:00,50.9,50.9,0.00,North,0,0.0,0.0,100,0.00,,,0.00,VWS V12.08,2013-05-05 13:59:00,
2013-05-05 10:04:00,51.1,51.1,0.00,North,0,0.0,0.0,100,0.00,,,0.00,VWS V12.08,2013-05-05 14:04:00,
2013-05-05 10:09:00,51.1,51.1,0.00,North,0,0.0,0.0,100,0.00,,,0.00,VWS V12.08,2013-05-05 14:09:00,
2013-05-05 10:14:00,51.4,51.4,0.00,North,0,0.0,0.0,100,0.00,,,0.00,VWS V12.08,2013-05-05 14:14:00,
2013-05-05 10:19:00,51.4,51.4,0.00,North,0,0.0,0.0,100,0.00,,,0.00,VWS V12.08,2013-05-05 14:19:00,
2013-05-05 10:24:00,51.8,51.8,0.00,North,0,0.0,0.0,100,0.00,,,0.00,VWS V12.08,2013-05-05 14:24:00,
2013-05-05 10:29:00,52.2,52.2,0.00,North,0,0.0,0.0,100,0.00,,,0.00,VWS V12.08,2013-05-05 14:29:00,
2013-05-05 10:30:00,52.9,52.9,0.00,North,0,0.0,0.0,100,0.00,,,0.00,VWS V12.08,2013-05-05 14:30:00,
2013-05-05 10:31:00,52.9,52.9,0.00,North,0,0.0,0.0,100,0.00,,,0.00,VWS V12.08,2013-05-05 14:31:00,
2013-05-05 10:32:00,52.9,52.9,0.00,North,0,0.0,0.0,100,0.00,,,0.00,VWS V12.08,2013-05-05 14:32:00,
2013-05-05 10:33:00,53.1,53.1,0.00,North,0,0.0,0.0,100,0.00,,,0.00,VWS V12.08,2013-05-05 14:33:00,
2013-05-05 10:34:00,53.1,53.1,0.00,North,0,0.0,0.0,100,0.00,,,0.00,VWS V12.08,2013-05-05 14:34:00,
2013-05-05 10:35:00,51.8,51.8,0.00,North,0,0.0,0.0,100,0.00,,,0.00,VWS V12.08,2013-05-05 14:35:00,
2013-05-05 10:40:00,52.0,52.0,0.00,North,0,0.0,0.0,100,0.00,,,0.00,VWS V12.08,2013-05-05 14:40:00,
2013-05-05 10:45:00,52.0,52.0,0.00,North,0,0.0,0.0,100,0.00,,,0.00,VWS V12.08,2013-05-05 14:45:00,
2013-05-05 10:50:00,52.2,52.2,0.00,North,0,0.0,0.0,100,0.00,,,0.00,VWS V12.08,2013-05-05 14:50:00,
2013-05-05 10:55:00,52.3,52.3,0.00,North,0,0.0,0.0,100,0.00,,,0.00,VWS V12.08,2013-05-05 14:55:00,
2013-05-05 11:00:00,52.7,52.7,0.00,North,0,0.0,0.0,100,0.00,,,0.00,VWS V12.08,2013-05-05 15:00:00,
2013-05-05 11:05:00,53.1,53.1,0.00,North,0,0.0,0.0,100,0.00,,,0.00,VWS V12.08,2013-05-05 15:05:00,
2013-05-05 11:10:00,53.1,53.1,0.00,North,0,0.0,0.0,100,0.00,,,0.00,VWS V12.08,2013-05-05 15:10:00,
2013-05-05 11:15:00,53.1,53.1,0.00,North,0,0.0,0.0,100,0.00,,,0.00,VWS V12.08,2013-05-05 15:15:00,
2013-05-05 11:20:00,53.1,53.1,0.00,North,0,0.0,0.0,100,0.00,,,0.00,VWS V12.08,2013-05-05 15:20:00,
2013-05-05 11:25:00,53.1,53.1,0.00,North,0,0.0,0.0,100,0.00,,,0.00,VWS V12.08,2013-05-05 15:25:00,
2013-05-05 11:29:00,54.7,54.7,0.00,North,0,0.0,0.0,100,0.00,,,0.00,VWS V12.08,2013-05-05 15:29:00,
2013-05-05 11:30:00,54.7,54.7,0.00,North,0,0.0,0.0,100,0.00,,,0.00,VWS V12.08,2013-05-05 15:30:00,
2013-05-05 11:31:00,54.7,54.7,0.00,North,0,0.0,0.0,100,0.00,,,0.00,VWS V12.08,2013-05-05 15:31:00,
2013-05-05 11:32:00,54.7,54.7,0.00,North,0,0.0,0.0,100,0.00,,,0.00,VWS V12.08,2013-05-05 15:32:00,
2013-05-05 11:33:00,54.7,54.7,0.00,North,0,0.0,0.0,100,0.00,,,0.00,VWS V12.08,2013-05-05 15:33:00,
2013-05-05 11:34:00,53.1,53.1,0.00,North,0,0.0,0.0,100,0.00,,,0.00,VWS V12.08,2013-05-05 15:34:00,
2013-05-05 11:39:00,53.1,53.1,0.00,North,0,0.0,0.0,100,0.00,,,0.00,VWS V12.08,2013-05-05 15:39:00,
2013-05-05 11:44:00,53.1,53.1,0.00,North,0,0.0,0.0,100,0.00,,,0.00,VWS V12.08,2013-05-05 15:44:00,
2013-05-05 11:49:00,53.1,53.1,0.00,North,0,0.0,0.0,100,0.00,,,0.00,VWS V12.08,2013-05-05 15:49:00,
2013-05-05 11:54:00,53.2,53.2,0.00,North,0,0.0,0.0,100,0.00,,,0.00,VWS V12.08,2013-05-05 15:54:00,
2013-05-05 11:59:00,53.6,53.6,0.00,North,0,0.0,0.0,100,0.00,,,0.00,VWS V12.08,2013-05-05 15:59:00,
2013-05-05 12:04:00,54.0,54.0,0.00,North,0,0.0,0.0,100,0.00,,,0.00,VWS V12.08,2013-05-05 16:04:00,
2013-05-05 12:09:00,54.1,54.1,0.00,North,0,0.0,0.0,100,0.00,,,0.00,VWS V12.08,2013-05-05 16:09:00,
2013-05-05 12:14:00,54.1,54.1,0.00,North,0,0.0,0.0,100,0.00,,,0.00,VWS V12.08,2013-05-05 16:14:00,
2013-05-05 12:19:00,54.3,54.3,0.00,North,0,0.0,0.0,100,0.00,,,0.00,VWS V12.08,2013-05-05 16:19:00,
2013-05-05 12:24:00,54.5,54.5,0.00,North,0,0.0,0.0,100,0.00,,,0.00,VWS V12.08,2013-05-05 16:24:00,
2013-05-05 12:29:00,54.7,54.7,0.00,North,0,0.0,0.0,100,0.00,,,0.00,VWS V12.08,2013-05-05 16:29:00,
2013-05-05 12:30:00,55.9,55.9,0.00,North,0,0.0,0.0,100,0.00,,,0.00,VWS V12.08,2013-05-05 16:30:00,
2013-05-05 12:31:00,55.9,55.9,0.00,North,0,0.0,0.0,100,0.00,,,0.00,VWS V12.08,2013-05-05 16:31:00,
2013-05-05 12:32:00,56.1,56.1,0.00,North,0,0.0,0.0,100,0.00,,,0.00,VWS V12.08,2013-05-05 16:32:00,
2013-05-05 12:33:00,56.1,56.1,0.00,North,0,0.0,0.0,100,0.00,,,0.00,VWS V12.08,2013-05-05 16:33:00,
2013-05-05 12:34:00,54.7,54.7,0.00,North,0,0.0,0.0,100,0.00,,,0.00,VWS V12.08,2013-05-05 16:34:00,
2013-05-05 12:39:00,55.0,55.0,0.00,North,0,0.0,0.0,100,0.00,,,0.00,VWS V12.08,2013-05-05 16:39:00,
2013-05-05 12:44:00,55.4,55.4,0.00,North,0,0.0,0.0,100,0.00,,,0.00,VWS V12.08,2013-05-05 16:44:00,
2013-05-05 12:49:00,55.4,55.4,0.00,North,0,0.0,0.0,100,0.00,,,0.00,VWS V12.08,2013-05-05 16:49:00,
2013-05-05 12:54:00,55.2,55.2,0.00,North,0,0.0,0.0,100,0.00,,,0.00,VWS V12.08,2013-05-05 16:54:00,
2013-05-05 12:59:00,55.4,55.4,0.00,North,0,0.0,0.0,100,0.00,,,0.00,VWS V12.08,2013-05-05 16:59:00,
2013-05-05 13:04:00,55.8,55.8,0.00,North,0,0.0,0.0,100,0.00,,,0.00,VWS V12.08,2013-05-05 17:04:00,
2013-05-05 13:09:00,55.9,55.9,0.00,North,0,0.0,0.0,100,0.00,,,0.00,VWS V12.08,2013-05-05 17:09:00,
2013-05-05 13:14:00,55.9,55.9,0.00,North,0,0.0,0.0,100,0.00,,,0.00,VWS V12.08,2013-05-05 17:14:00,
2013-05-05 13:19:00,55.8,55.8,0.00,North,0,0.0,0.0,100,0.00,,,0.00,VWS V12.08,2013-05-05 17:19:00,
2013-05-05 13:24:00,55.8,55.8,0.00,North,0,0.0,0.0,100,0.00,,,0.00,VWS V12.08,2013-05-05 17:24:00,
2013-05-05 13:29:00,55.9,55.9,0.00,North,0,0.0,0.0,100,0.00,,,0.00,VWS V12.08,2013-05-05 17:29:00,
2013-05-05 13:30:00,59.5,50.9,0.00,North,0,0.0,0.0,73,0.00,,,0.00,VWS V12.08,2013-05-05 17:30:00,
2013-05-05 13:31:00,59.7,51.8,0.00,North,0,0.0,0.0,75,0.00,,,0.00,VWS V12.08,2013-05-05 17:31:00,
2013-05-05 13:32:00,59.9,52.0,0.00,North,0,0.0,0.0,75,0.00,,,0.00,VWS V12.08,2013-05-05 17:32:00,
2013-05-05 13:33:00,60.1,52.1,0.00,North,0,0.0,0.0,75,0.00,,,0.00,VWS V12.08,2013-05-05 17:33:00,
2013-05-05 13:34:00,56.1,56.1,0.00,North,0,0.0,0.0,100,0.00,,,0.00,VWS V12.08,2013-05-05 17:34:00,
2013-05-05 13:35:00,60.3,51.6,0.00,North,0,0.0,0.0,73,0.00,,,0.00,VWS V12.08,2013-05-05 17:35:00,
2013-05-05 13:39:00,56.3,56.3,0.00,North,0,0.0,0.0,100,0.00,,,0.00,VWS V12.08,2013-05-05 17:39:00,
2013-05-05 13:44:00,56.5,56.5,0.00,North,0,0.0,0.0,100,0.00,,,0.00,VWS V12.08,2013-05-05 17:44:00,
2013-05-05 13:49:00,57.0,57.0,0.00,North,0,0.0,0.0,100,0.00,,,0.00,VWS V12.08,2013-05-05 17:49:00,
2013-05-05 13:54:00,57.7,57.7,0.00,North,0,0.0,0.0,100,0.00,,,0.00,VWS V12.08,2013-05-05 17:54:00,
2013-05-05 13:59:00,57.9,57.9,0.00,North,0,0.0,0.0,100,0.00,,,0.00,VWS V12.08,2013-05-05 17:59:00,
2013-05-05 14:04:00,57.7,57.5,0.00,North,0,0.0,0.0,99,0.00,,,0.00,VWS V12.08,2013-05-05 18:04:00,
2013-05-05 14:09:00,58.5,58.2,0.00,North,0,0.0,0.0,99,0.00,,,0.00,VWS V12.08,2013-05-05 18:09:00,
2013-05-05 14:14:00,58.8,55.0,0.00,North,0,0.0,0.0,87,0.00,,,0.00,VWS V12.08,2013-05-05 18:14:00,
2013-05-05 14:19:00,59.5,54.4,0.00,North,0,0.0,0.0,83,0.00,,,0.00,VWS V12.08,2013-05-05 18:19:00,
2013-05-05 14:24:00,59.4,51.5,0.00,North,0,0.0,0.0,75,0.00,,,0.00,VWS V12.08,2013-05-05 18:24:00,
2013-05-05 14:29:00,59.5,50.9,0.00,North,0,0.0,0.0,73,0.00,,,0.00,VWS V12.08,2013-05-05 18:29:00,
2013-05-05 14:30:00,63.3,45.9,0.00,North,0,0.0,0.0,53,0.00,,,0.00,VWS V12.08,2013-05-05 18:30:00,
2013-05-05 14:31:00,63.3,44.9,0.00,North,0,0.0,0.0,51,0.00,,,0.00,VWS V12.08,2013-05-05 18:31:00,
2013-05-05 14:32:00,63.3,42.8,0.00,North,0,0.0,0.0,47,0.00,,,0.00,VWS V12.08,2013-05-05 18:32:00,
2013-05-05 14:33:00,63.1,39.1,0.00,North,0,0.0,0.0,41,0.00,,,0.00,VWS V12.08,2013-05-05 18:33:00,
2013-05-05 14:34:00,59.9,50.5,0.00,North,0,0.0,0.0,71,0.00,,,0.00,VWS V12.08,2013-05-05 18:34:00,
2013-05-05 14:35:00,62.8,38.8,0.00,North,0,0.0,0.0,41,0.00,,,0.00,VWS V12.08,2013-05-05 18:35:00,
2013-05-05 14:36:00,62.6,38.6,0.00,North,0,0.0,0.0,41,0.00,,,0.00,VWS V12.08,2013-05-05 18:36:00,
2013-05-05 14:39:00,60.4,51.8,0.00,North,0,0.0,0.0,73,0.00,,,0.00,VWS V12.08,2013-05-05 18:39:00,
2013-05-05 14:44:00,60.6,51.9,0.00,North,0,0.0,0.0,73,0.00,,,0.00,VWS V12.08,2013-05-05 18:44:00,
2013-05-05 14:49:00,60.3,49.3,0.00,North,0,0.0,0.0,67,0.00,,,0.00,VWS V12.08,2013-05-05 18:49:00,
2013-05-05 14:54:00,60.1,48.3,0.00,North,0,0.0,0.0,65,0.00,,,0.00,VWS V12.08,2013-05-05 18:54:00,
2013-05-05 14:59:00,60.1,51.4,0.00,North,0,0.0,0.0,73,0.00,,,0.00,VWS V12.08,2013-05-05 18:59:00,
2013-05-05 15:04:00,59.7,46.3,0.00,North,0,0.0,0.0,61,0.00,,,0.00,VWS V12.08,2013-05-05 19:04:00,
2013-05-05 15:09:00,59.9,48.1,0.00,North,0,0.0,0.0,65,0.00,,,0.00,VWS V12.08,2013-05-05 19:09:00,
2013-05-05 15:14:00,61.3,49.5,0.00,North,0,0.0,0.0,65,0.00,,,0.00,VWS V12.08,2013-05-05 19:14:00,
2013-05-05 15:19:00,62.8,50.8,0.00,North,0,0.0,0.0,65,0.00,,,0.00,VWS V12.08,2013-05-05 19:19:00,
2013-05-05 15:24:00,63.0,45.6,0.00,North,0,0.0,0.0,53,0.00,,,0.00,VWS V12.08,2013-05-05 19:24:00,
2013-05-05 15:29:00,66.2,37.8,0.00,North,0,0.0,0.0,35,0.00,,,0.00,VWS V12.08,2013-05-05 19:29:00,
2013-05-05 15:30:00,63.3,45.9,0.00,North,0,0.0,0.0,53,0.00,,,0.00,VWS V12.08,2013-05-05 19:30:00,
2013-05-05 15:31:00,66.2,37.8,0.00,North,0,0.0,0.0,35,0.00,,,0.00,VWS V12.08,2013-05-05 19:31:00,
2013-05-05 15:32:00,66.2,37.8,0.00,North,0,0.0,0.0,35,0.00,,,0.00,VWS V12.08,2013-05-05 19:32:00,
2013-05-05 15:33:00,66.0,37.6,0.00,North,0,0.0,0.0,35,0.00,,,0.00,VWS V12.08,2013-05-05 19:33:00,
2013-05-05 15:34:00,66.2,37.8,0.00,North,0,0.0,0.0,35,0.00,,,0.00,VWS V12.08,2013-05-05 19:34:00,
2013-05-05 15:35:00,63.0,38.9,0.00,North,0,0.0,0.0,41,0.00,,,0.00,VWS V12.08,2013-05-05 19:35:00,
2013-05-05 15:40:00,62.4,45.1,0.00,North,0,0.0,0.0,53,0.00,,,0.00,VWS V12.08,2013-05-05 19:40:00,
2013-05-05 15:45:00,63.1,45.8,0.00,North,0,0.0,0.0,53,0.00,,,0.00,VWS V12.08,2013-05-05 19:45:00,
2013-05-05 15:50:00,64.2,37.4,0.00,North,0,0.0,0.0,37,0.00,,,0.00,VWS V12.08,2013-05-05 19:50:00,
2013-05-05 15:55:00,64.6,36.3,0.00,North,0,0.0,0.0,35,0.00,,,0.00,VWS V12.08,2013-05-05 19:55:00,
2013-05-05 16:00:00,64.8,36.5,0.00,North,0,0.0,0.0,35,0.00,,,0.00,VWS V12.08,2013-05-05 20:00:00,
2013-05-05 16:05:00,65.1,36.8,0.00,North,0,0.0,0.0,35,0.00,,,0.00,VWS V12.08,2013-05-05 20:05:00,
2013-05-05 16:10:00,65.5,37.1,0.00,North,0,0.0,0.0,35,0.00,,,0.00,VWS V12.08,2013-05-05 20:10:00,
2013-05-05 16:15:00,65.3,37.0,0.00,North,0,0.0,0.0,35,0.00,,,0.00,VWS V12.08,2013-05-05 20:15:00,
2013-05-05 16:20:00,65.5,37.1,0.00,North,0,0.0,0.0,35,0.00,,,0.00,VWS V12.08,2013-05-05 20:20:00,
2013-05-05 16:25:00,65.8,37.5,0.00,North,0,0.0,0.0,35,0.00,,,0.00,VWS V12.08,2013-05-05 20:25:00,
2013-05-05 16:29:00,63.3,36.6,0.00,North,0,0.0,0.0,37,0.00,,,0.00,VWS V12.08,2013-05-05 20:29:00,
2013-05-05 16:30:00,66.2,37.8,0.00,North,0,0.0,0.0,35,0.00,,,0.00,VWS V12.08,2013-05-05 20:30:00,
2013-05-05 16:31:00,63.3,36.6,0.00,North,0,0.0,0.0,37,0.00,,,0.00,VWS V12.08,2013-05-05 20:31:00,
2013-05-05 16:32:00,63.3,36.6,0.00,North,0,0.0,0.0,37,0.00,,,0.00,VWS V12.08,2013-05-05 20:32:00,
2013-05-05 16:33:00,63.3,36.6,0.00,North,0,0.0,0.0,37,0.00,,,0.00,VWS V12.08,2013-05-05 20:33:00,
2013-05-05 16:35:00,66.2,37.8,0.00,North,0,0.0,0.0,35,0.00,,,0.00,VWS V12.08,2013-05-05 20:35:00,
2013-05-05 16:40:00,66.0,37.6,0.00,North,0,0.0,0.0,35,0.00,,,0.00,VWS V12.08,2013-05-05 20:40:00,
2013-05-05 16:45:00,66.0,37.6,0.00,North,0,0.0,0.0,35,0.00,,,0.00,VWS V12.08,2013-05-05 20:45:00,
2013-05-05 16:50:00,66.0,37.6,0.00,North,0,0.0,0.0,35,0.00,,,0.00,VWS V12.08,2013-05-05 20:50:00,
2013-05-05 16:55:00,66.4,37.9,0.00,North,0,0.0,0.0,35,0.00,,,0.00,VWS V12.08,2013-05-05 20:55:00,
2013-05-05 17:00:00,66.4,37.9,0.00,North,0,0.0,0.0,35,0.00,,,0.00,VWS V12.08,2013-05-05 21:00:00,
2013-05-05 17:05:00,65.3,37.0,0.00,North,0,0.0,0.0,35,0.00,,,0.00,VWS V12.08,2013-05-05 21:05:00,
2013-05-05 17:10:00,64.6,36.3,0.00,North,0,0.0,0.0,35,0.00,,,0.00,VWS V12.08,2013-05-05 21:10:00,
2013-05-05 17:15:00,65.3,37.0,0.00,North,0,0.0,0.0,35,0.00,,,0.00,VWS V12.08,2013-05-05 21:15:00,
2013-05-05 17:20:00,65.1,36.8,0.00,North,0,0.0,0.0,35,0.00,,,0.00,VWS V12.08,2013-05-05 21:20:00,
2013-05-05 17:25:00,64.4,36.2,0.00,North,0,0.0,0.0,35,0.00,,,0.00,VWS V12.08,2013-05-05 21:25:00,
2013-05-05 17:29:00,58.8,43.6,0.00,North,0,0.0,0.0,57,0.00,,,0.00,VWS V12.08,2013-05-05 21:29:00,
2013-05-05 17:30:00,63.5,36.8,0.00,North,0,0.0,0.0,37,0.00,,,0.00,VWS V12.08,2013-05-05 21:30:00,
2013-05-05 17:31:00,58.5,43.3,0.00,North,0,0.0,0.0,57,0.00,,,0.00,VWS V12.08,2013-05-05 21:31:00,
2013-05-05 17:32:00,58.3,43.1,0.00,North,0,0.0,0.0,57,0.00,,,0.00,VWS V12.08,2013-05-05 21:32:00,
2013-05-05 17:33:00,58.1,43.0,0.00,North,0,0.0,0.0,57,0.00,,,0.00,VWS V12.08,2013-05-05 21:33:00,
2013-05-05 17:34:00,57.6,43.4,0.00,North,0,0.0,0.0,59,0.00,,,0.00,VWS V12.08,2013-05-05 21:34:00,
2013-05-05 17:35:00,63.3,36.6,0.00,North,0,0.0,0.0,37,0.00,,,0.00,VWS V12.08,2013-05-05 21:35:00,
2013-05-05 17:40:00,62.8,36.2,0.00,North,0,0.0,0.0,37,0.00,,,0.00,VWS V12.08,2013-05-05 21:40:00,
2013-05-05 17:45:00,62.6,38.6,0.00,North,0,0.0,0.0,41,0.00,,,0.00,VWS V12.08,2013-05-05 21:45:00,
2013-05-05 17:50:00,62.4,35.8,0.00,North,0,0.0,0.0,37,0.00,,,0.00,VWS V12.08,2013-05-05 21:50:00,
2013-05-05 17:55:00,61.9,35.3,0.00,North,0,0.0,0.0,37,0.00,,,0.00,VWS V12.08,2013-05-05 21:55:00,
2013-05-05 18:00:00,61.3,38.7,0.00,North,0,0.0,0.0,43,0.00,,,0.00,VWS V12.08,2013-05-05 22:00:00,
2013-05-05 18:05:00,61.0,34.5,0.00,North,0,0.0,0.0,37,0.00,,,0.00,VWS V12.08,2013-05-05 22:05:00,
2013-05-05 18:10:00,60.6,38.0,0.00,North,0,0.0,0.0,43,0.00,,,0.00,VWS V12.08,2013-05-05 22:10:00,
2013-05-05 18:15:00,60.4,37.9,0.00,North,0,0.0,0.0,43,0.00,,,0.00,VWS V12.08,2013-05-05 22:15:00,
2013-05-05 18:20:00,60.1,40.9,0.00,North,0,0.0,0.0,49,0.00,,,0.00,VWS V12.08,2013-05-05 22:20:00,
2013-05-05 18:25:00,59.9,42.7,0.00,North,0,0.0,0.0,53,0.00,,,0.00,VWS V12.08,2013-05-05 22:25:00,
2013-05-05 18:29:00,52.9,48.5,0.00,North,0,0.0,0.0,85,0.00,,,0.00,VWS V12.08,2013-05-05 22:29:00,
2013-05-05 18:30:00,59.4,44.1,0.00,North,0,0.0,0.0,57,0.00,,,0.00,VWS V12.08,2013-05-05 22:30:00,
2013-05-05 18:31:00,52.9,48.5,0.00,North,0,0.0,0.0,85,0.00,,,0.00,VWS V12.08,2013-05-05 22:31:00,
2013-05-05 18:32:00,52.9,48.5,0.00,North,0,0.0,0.0,85,0.00,,,0.00,VWS V12.08,2013-05-05 22:32:00,
2013-05-05 18:33:00,52.9,48.5,0.00,North,0,0.0,0.0,85,0.00,,,0.00,VWS V12.08,2013-05-05 22:33:00,
2013-05-05 18:34:00,52.9,49.1,0.00,North,0,0.0,0.0,87,0.00,,,0.00,VWS V12.08,2013-05-05 22:34:00,
2013-05-05 18:35:00,57.6,43.4,0.00,North,0,0.0,0.0,59,0.00,,,0.00,VWS V12.08,2013-05-05 22:35:00,
2013-05-05 18:40:00,55.6,45.6,0.00,North,0,0.0,0.0,69,0.00,,,0.00,VWS V12.08,2013-05-05 22:40:00,
2013-05-05 18:45:00,54.5,46.0,0.00,North,0,0.0,0.0,73,0.00,,,0.00,VWS V12.08,2013-05-05 22:45:00,
2013-05-05 18:50:00,53.8,46.0,0.00,North,0,0.0,0.0,75,0.00,,,0.00,VWS V12.08,2013-05-05 22:50:00,
2013-05-05 18:55:00,53.4,47.7,0.00,North,0,0.0,0.0,81,0.00,,,0.00,VWS V12.08,2013-05-05 22:55:00,
2013-05-05 19:00:00,53.1,47.4,0.00,North,0,0.0,0.0,81,0.00,,,0.00,VWS V12.08,2013-05-05 23:00:00,
2013-05-05 19:05:00,52.7,47.7,0.00,North,0,0.0,0.0,83,0.00,,,0.00,VWS V12.08,2013-05-05 23:05:00,
2013-05-05 19:10:00,52.7,48.3,0.00,North,0,0.0,0.0,85,0.00,,,0.00,VWS V12.08,2013-05-05 23:10:00,
2013-05-05 19:15:00,52.7,48.3,0.00,North,0,0.0,0.0,85,0.00,,,0.00,VWS V12.08,2013-05-05 23:15:00,
2013-05-05 19:20:00,52.9,48.5,0.00,North,0,0.0,0.0,85,0.00,,,0.00,VWS V12.08,2013-05-05 23:20:00,
2013-05-05 19:25:00,53.1,48.7,0.00,North,0,0.0,0.0,85,0.00,,,0.00,VWS V12.08,2013-05-05 23:25:00,
2013-05-05 19:29:00,52.0,51.2,0.00,North,0,0.0,0.0,97,0.00,,,0.00,VWS V12.08,2013-05-05 23:29:00,
2013-05-05 19:30:00,52.0,51.2,0.00,North,0,0.0,0.0,97,0.00,,,0.00,VWS V12.08,2013-05-05 23:30:00,
2013-05-05 19:34:00,52.9,48.5,0.00,North,0,0.0,0.0,85,0.00,,,0.00,VWS V12.08,2013-05-05 23:34:00,
2013-05-05 19:39:00,52.7,49.0,0.00,North,0,0.0,0.0,87,0.00,,,0.00,VWS V12.08,2013-05-05 23:39:00,
2013-05-05 19:44:00,52.5,49.4,0.00,North,0,0.0,0.0,89,0.00,,,0.00,VWS V12.08,2013-05-05 23:44:00,
2013-05-05 19:49:00,52.3,49.2,0.00,North,0,0.0,0.0,89,0.00,,,0.00,VWS V12.08,2013-05-05 23:49:00,
2013-05-05 19:54:00,52.3,49.8,0.00,North,0,0.0,0.0,91,0.00,,,0.00,VWS V12.08,2013-05-05 23:54:00,
2013-05-05 19:59:00,52.2,49.6,0.00,North,0,0.0,0.0,91,0.00,,,0.00,VWS V12.08,2013-05-05 23:59:00,
2013-05-05 20:04:00,52.0,50.0,0.00,North,0,0.0,0.0,93,0.00,,,0.00,VWS V12.08,2013-05-06 00:04:00,
2013-05-05 20:09:00,52.0,50.0,0.00,North,0,0.0,0.0,93,0.00,,,0.00,VWS V12.08,2013-05-06 00:09:00,
2013-05-05 20:14:00,52.0,50.0,0.00,North,0,0.0,0.0,93,0.00,,,0.00,VWS V12.08,2013-05-06 00:14:00,
2013-05-05 20:19:00,52.0,50.6,0.00,North,0,0.0,0.0,95,0.00,,,0.00,VWS V12.08,2013-05-06 00:19:00,
2013-05-05 20:24:00,52.0,50.6,0.00,North,0,0.0,0.0,95,0.00,,,0.00,VWS V12.08,2013-05-06 00:24:00,
2013-05-05 20:29:00,52.0,51.2,0.00,North,0,0.0,0.0,97,0.00,,,0.00,VWS V12.08,2013-05-06 00:29:00,
2013-05-05 20:30:00,52.0,52.0,0.00,North,0,0.0,0.0,100,0.00,,,0.00,VWS V12.08,2013-05-06 00:30:00,
2013-05-05 20:31:00,52.0,52.0,0.00,North,0,0.0,0.0,100,0.00,,,0.00,VWS V12.08,2013-05-06 00:31:00,
2013-05-05 20:32:00,52.0,52.0,0.00,North,0,0.0,0.0,100,0.00,,,0.00,VWS V12.08,2013-05-06 00:32:00,
2013-05-05 20:33:00,52.0,52.0,0.00,North,0,0.0,0.0,100,0.00,,,0.00,VWS V12.08,2013-05-06 00:33:00,
2013-05-05 20:34:00,52.0,51.2,0.00,North,0,0.0,0.0,97,0.00,,,0.00,VWS V12.08,2013-05-06 00:34:00,
2013-05-05 20:35:00,52.0,52.0,0.00,North,0,0.0,0.0,100,0.00,,,0.00,VWS V12.08,2013-05-06 00:35:00,
2013-05-05 20:39:00,51.8,51.0,0.00,North,0,0.0,0.0,97,0.00,,,0.00,VWS V12.08,2013-05-06 00:39:00,
2013-05-05 20:44:00,52.0,51.7,0.00,North,0,0.0,0.0,99,0.00,,,0.00,VWS V12.08,2013-05-06 00:44:00,
2013-05-05 20:49:00,52.0,51.7,0.00,North,0,0.0,0.0,99,0.00,,,0.00,VWS V12.08,2013-05-06 00:49:00,
2013-05-05 20:54:00,52.0,52.0,0.00,North,0,0.0,0.0,100,0.00,,,0.00,VWS V12.08,2013-05-06 00:54:00,
2013-05-05 20:59:00,51.8,51.8,0.00,North,0,0.0,0.0,100,0.00,,,0.00,VWS V12.08,2013-05-06 00:59:00,
2013-05-05 21:04:00,51.8,51.8,0.00,North,0,0.0,0.0,100,0.00,,,0.00,VWS V12.08,2013-05-06 01:04:00,
2013-05-05 21:09:00,51.8,51.8,0.00,North,0,0.0,0.0,100,0.00,,,0.00,VWS V12.08,2013-05-06 01:09:00,
2013-05-05 21:14:00,51.8,51.8,0.00,North,0,0.0,0.0,100,0.00,,,0.00,VWS V12.08,2013-05-06 01:14:00,
2013-05-05 21:19:00,51.8,51.8,0.00,North,0,0.0,0.0,100,0.00,,,0.00,VWS V12.08,2013-05-06 01:19:00,
2013-05-05 21:24:00,51.8,51.8,0.00,North,0,0.0,0.0,100,0.00,,,0.00,VWS V12.08,2013-05-06 01:24:00,
2013-05-05 21:29:00,52.0,52.0,0.00,North,0,0.0,0.0,100,0.00,,,0.00,VWS V12.08,2013-05-06 01:29:00,
2013-05-05 21:30:00,51.8,51.8,0.00,North,0,0.0,0.0,100,0.00,,,0.00,VWS V12.08,2013-05-06 01:30:00,
2013-05-05 21:31:00,51.6,51.6,0.00,North,0,0.0,0.0,100,0.00,,,0.00,VWS V12.08,2013-05-06 01:31:00,
2013-05-05 21:32:00,51.6,51.6,0.00,North,0,0.0,0.0,100,0.00,,,0.00,VWS V12.08,2013-05-06 01:32:00,
2013-05-05 21:33:00,51.6,51.6,0.00,North,0,0.0,0.0,100,0.00,,,0.00,VWS V12.08,2013-05-06 01:33:00,
2013-05-05 21:34:00,52.0,52.0,0.00,North,0,0.0,0.0,100,0.00,,,0.00,VWS V12.08,2013-05-06 01:34:00,
2013-05-05 21:39:00,52.0,52.0,0.00,North,0,0.0,0.0,100,0.00,,,0.00,VWS V12.08,2013-05-06 01:39:00,
2013-05-05 21:44:00,51.8,51.8,0.00,North,0,0.0,0.0,100,0.00,,,0.00,VWS V12.08,2013-05-06 01:44:00,
2013-05-05 21:49:00,52.0,52.0,0.00,North,0,0.0,0.0,100,0.00,,,0.00,VWS V12.08,2013-05-06 01:49:00,
2013-05-05 21:54:00,51.8,51.8,0.00,North,0,0.0,0.0,100,0.00,,,0.00,VWS V12.08,2013-05-06 01:54:00,
2013-05-05 21:59:00,51.8,51.8,0.00,North,0,0.0,0.0,100,0.00,,,0.00,VWS V12.08,2013-05-06 01:59:00,
2013-05-05 22:04:00,51.8,51.8,0.00,North,0,0.0,0.0,100,0.00,,,0.00,VWS V12.08,2013-05-06 02:04:00,
2013-05-05 22:09:00,51.8,51.8,0.00,North,0,0.0,0.0,100,0.00,,,0.00,VWS V12.08,2013-05-06 02:09:00,
2013-05-05 22:14:00,51.8,51.8,0.00,North,0,0.0,0.0,100,0.00,,,0.00,VWS V12.08,2013-05-06 02:14:00,
2013-05-05 22:19:00,51.8,51.8,0.00,North,0,0.0,0.0,100,0.00,,,0.00,VWS V12.08,2013-05-06 02:19:00,
2013-05-05 22:24:00,51.8,51.8,0.00,North,0,0.0,0.0,100,0.00,,,0.00,VWS V12.08,2013-05-06 02:24:00,
2013-05-05 22:29:00,51.8,51.8,0.00,North,0,0.0,0.0,100,0.00,,,0.00,VWS V12.08,2013-05-06 02:29:00,
2013-05-05 22:30:00,51.4,51.4,0.00,North,0,0.0,0.0,100,0.00,,,0.00,VWS V12.08,2013-05-06 02:30:00,
2013-05-05 22:31:00,51.4,51.4,0.00,North,0,0.0,0.0,100,0.00,,,0.00,VWS V12.08,2013-05-06 02:31:00,
2013-05-05 22:32:00,51.4,51.4,0.00,North,0,0.0,0.0,100,0.00,,,0.00,VWS V12.08,2013-05-06 02:32:00,
2013-05-05 22:33:00,51.4,51.4,0.00,North,0,0.0,0.0,100,0.00,,,0.00,VWS V12.08,2013-05-06 02:33:00,
2013-05-05 22:34:00,51.6,51.6,0.00,North,0,0.0,0.0,100,0.00,,,0.00,VWS V12.08,2013-05-06 02:34:00,
2013-05-05 22:39:00,51.8,51.8,0.00,North,0,0.0,0.0,100,0.00,,,0.00,VWS V12.08,2013-05-06 02:39:00,
2013-05-05 22:44:00,51.8,51.8,0.00,North,0,0.0,0.0,100,0.00,,,0.00,VWS V12.08,2013-05-06 02:44:00,
2013-05-05 22:49:00,51.6,51.6,0.00,North,0,0.0,0.0,100,0.00,,,0.00,VWS V12.08,2013-05-06 02:49:00,
2013-05-05 22:54:00,51.6,51.6,0.00,North,0,0.0,0.0,100,0.00,,,0.00,VWS V12.08,2013-05-06 02:54:00,
2013-05-05 22:59:00,51.6,51.6,0.00,North,0,0.0,0.0,100,0.00,,,0.00,VWS V12.08,2013-05-06 02:59:00,
2013-05-05 23:00:00,50.9,50.9,0.00,North,0,0.0,0.0,100,0.00,,,0.00,VWS V12.08,2013-05-06 03:00:00,
2013-05-05 23:01:00,50.7,50.7,0.00,North,0,0.0,0.0,100,0.00,,,0.00,VWS V12.08,2013-05-06 03:01:00,
2013-05-05 23:02:00,50.7,50.7,0.00,North,0,0.0,0.0,100,0.00,,,0.00,VWS V12.08,2013-05-06 03:02:00,
2013-05-05 23:03:00,50.7,50.7,0.00,North,0,0.0,0.0,100,0.00,,,0.00,VWS V12.08,2013-05-06 03:03:00,
2013-05-05 23:04:00,51.6,51.6,0.00,North,0,0.0,0.0,100,0.00,,,0.00,VWS V12.08,2013-05-06 03:04:00,
2013-05-05 23:05:00,50.7,50.7,0.00,North,0,0.0,0.0,100,0.00,,,0.00,VWS V12.08,2013-05-06 03:05:00,
2013-05-05 23:09:00,51.6,51.6,0.00,North,0,0.0,0.0,100,0.00,,,0.00,VWS V12.08,2013-05-06 03:09:00,
2013-05-05 23:14:00,51.6,51.6,0.00,North,0,0.0,0.0,100,0.00,,,0.00,VWS V12.08,2013-05-06 03:14:00,
2013-05-05 23:19:00,51.6,51.6,0.00,North,0,0.0,0.0,100,0.00,,,0.00,VWS V12.08,2013-05-06 03:19:00,
2013-05-05 23:24:00,51.4,51.4,0.00,North,0,0.0,0.0,100,0.00,,,0.00,VWS V12.08,2013-05-06 03:24:00,
2013-05-05 23:29:00,51.4,51.4,0.00,North,0,0.0,0.0,100,0.00,,,0.00,VWS V12.08,2013-05-06 03:29:00,
2013-05-05 23:30:00,50.4,50.4,0.00,North,0,0.0,0.0,100,0.00,,,0.00,VWS V12.08,2013-05-06 03:30:00,
2013-05-05 23:31:00,50.4,50.4,0.00,North,0,0.0,0.0,100,0.00,,,0.00,VWS V12.08,2013-05-06 03:31:00,
2013-05-05 23:32:00,50.4,50.4,0.00,North,0,0.0,0.0,100,0.00,,,0.00,VWS V12.08,2013-05-06 03:32:00,
2013-05-05 23:33:00,50.4,50.4,0.00,North,0,0.0,0.0,100,0.00,,,0.00,VWS V12.08,2013-05-06 03:33:00,
2013-05-05 23:34:00,51.4,51.4,0.00,North,0,0.0,0.0,100,0.00,,,0.00,VWS V12.08,2013-05-06 03:34:00,
2013-05-05 23:35:00,50.4,50.4,0.00,North,0,0.0,0.0,100,0.00,,,0.00,VWS V12.08,2013-05-06 03:35:00,
2013-05-05 23:39:00,51.3,51.3,0.00,North,0,0.0,0.0,100,0.00,,,0.00,VWS V12.08,2013-05-06 03:39:00,
2013-05-05 23:44:00,51.1,51.1,0.00,North,0,0.0,0.0,100,0.00,,,0.00,VWS V12.08,2013-05-06 03:44:00,
2013-05-05 23:49:00,51.1,51.1,0.00,North,0,0.0,0.0,100,0.00,,,0.00,VWS V12.08,2013-05-06 03:49:00,
2013-05-05 23:54:00,50.9,50.9,0.00,North,0,0.0,0.0,100,0.00,,,0.00,VWS V12.08,2013-05-06 03:54:00,
2013-05-05 23:59:00,50.9,50.9,0.00,North,0,0.0,0.0,100,0.00,,,0.00,VWS V12.08,2013-05-06 03:59:00,